Terminal Aerodrome Forecast
Issued by NWS

Home | Current Version | Previous Version | Text Only | Print | Product List | Glossary On
Versions: 1 2 3 4 5 6 7 8 9 10 11 12 13 14 15 16
000
FTUS44 KMAF 312300
TAFHOB
TAF
KHOB 312320Z 0100/0124 10009KT P6SM FEW250
     FM011000 12009KT P6SM BKN060 OVC200
     FM011500 15012G18KT P6SM BKN060=

USA.gov is the U.S. government's official web portal to all federal, state and local government web resources and services.